www.pogodaiklimat.ru

Погода и климат >> Архив погоды >> Россия >> Якутия >> Чурапча


ПОГОДА в Чурапче

  • Прогноз погоды в Чурапче
  • Монитор погоды в Чурапче

АРХИВ ПОГОДЫ в Чурапче

Время (UTC), дата Ветер
(напр.,м/с)
 
Видим.   Явления Облачность Т
(С)
Тd
(С)
f
(%)
Тe
(С)
Тes
(С)
Комфортность P
(гПа)
Po
(гПа)
Тmin
(С)
Tmax
(С)
R
(мм)
R24
(мм)
S
(см)
12 12.09 В 2 20 км 9/9 600 м
[Sc]
+14.0 +4.6 53 +14 +14 1002.0 979.9 +20.9
15 12.09 ЮВ 4 20 км 9/9 600 м
[Sc]
+14.2 +4.6 52 +13 +13 998.9 976.9
18 12.09 В 4 10 км слаб. дождь 10/10 900 м
[Sc]
+10.2 +8.0 86 +8 +8 995.2 973.0
21 12.09 ЮВ 4 20 км {дождь} 10/10 900 м
[Sc]
+9.8 +9.0 95 +7 +7 991.6 969.4
00 13.09 ЮЗ 3 20 км {дождь} 10/0 750 м
[As op]
+11.8 +10.7 93 +10 +10 991.2 969.2 +9.6 4
03 13.09 ЮЗ 3 20 км 10/10 660 м
[Sc]
+11.5 +7.7 77 +10 +10 991.8 969.8
06 13.09 ЮЗ 2 20 км слаб. морось 10/10 400 м
[St]
+9.9 +8.7 92 +8 +8 992.7 970.5
09 13.09 ЮЗ 2 20 км в посл. час дождь {морось} 10/10 420 м
[St]
+9.3 +8.7 96 +7 +7 994.8 972.5
12 13.09 З 5
{10}
20 км {дождь, морось} 10/10 630 м
[Sc]
+6.9 +5.6 91 +3 +3 997.7 975.2 +12.0 4
15 13.09 З 2 20 км 8/4 600 м
[Sc Ci fib]
+4.6 +2.9 89 +2 +2 999.5 976.7
18 13.09 З 2 20 км 8/8 600 м
[Sc]
+3.8 +1.3 84 +1 +1 1000.8 977.9
21 13.09 З 4 20 км 8/8 600 м
[Sc diur, vesp]
+2.3 -2.5 71 -2 -2 1002.0 978.9
00 14.09 З 4
{11}
20 км 9/0
[Ac trans Ci fib]
+2.2 -5.6 56 -2 -1 1003.6 980.5 +1.3
03 14.09 З 4
{10}
20 км 9/0
[Ac trans]
+5.3 -7.6 39 +2 +4 1003.8 980.9
06 14.09 З 4
{10}
20 км 9/0
[Ci sp]
+8.2 -8.4 30 +6 +8 1003.7 981.1
09 14.09 З 3
{10}
20 км 8/0
[Ci sp]
+7.3 -7.2 35 +5 +5 1004.3 981.6
12 14.09 ЮЗ 1 20 км 3/0
[Ci fib]
-1.6 -5.6 74 -4 -4 1005.8 982.3 +8.3
15 14.09 штиль 0 20 км ясно -4.8 -6.8 86 -6 -6 1006.1 983.1
18 14.09 штиль 0 20 км ясно -5.9 -7.0 92 -7 -7 1007.1 983.2
21 14.09 штиль 0 20 км ясно -7.2 -9.3 85 -8 -8 1007.0 983.0
00 15.09 штиль 0 20 км 3/0
[Ci sp]
+1.7 -5.1 61 +1 +4 1006.8 983.6 -7.3
03 15.09 ЮВ 2 20 км 3/0
[Ci fib]
+9.8 -8.7 26 +9 +14 1005.3 982.8
06 15.09 В 4 20 км 3/0
[Ci fib]
+11.4 -8.8 23 +10 +12 1003.9 981.5
09 15.09 ЮВ 2 20 км ясно +10.0 -8.8 26 +9 +9 1003.9 981.4
12 15.09 СВ 1 20 км ясно +0.8 -8.1 51 -0 -0 1004.9 981.6 +11.7
15 15.09 С 1 20 км ясно -1.8 -5.8 74 -4 -4 1005.5 982.0
18 15.09 штиль 0 20 км 3/0
[Ci fib]
-3.8 -4.9 92 -5 -5 1005.9 982.2
21 15.09 С 1 20 км 9/0
[Ci fib]
-5.6 -6.3 95 -8 -8 1006.1 982.3
00 16.09 СЗ 1 20 км 9/9 600 м
[Sc]
-0.4 -2.7 84 -2 -2 1005.4 982.0 -6.0
03 16.09 С 2 20 км 9/9 600 м
[Sc]
+6.0 -3.5 51 +4 +5 1004.6 981.8
06 16.09 СВ 2 20 км 9/9 600 м
[Sc]
+8.5 -2.0 48 +7 +8 1004.0 981.4
09 16.09 СВ 2 20 км 9/8 600 м
[Sc Ac trans]
+7.5 -1.1 54 +6 +6 1004.8 982.1
12 16.09 В 2 10 км слаб. дождь 10/10 600 м
[Sc]
+5.5 +1.2 74 +3 +3 1005.3 982.4 +9.1 0.0
15 16.09 СЗ 1 10 км {дождь} 10/10 870 м
[Sc]
+4.3 +3.1 92 +3 +3 1004.0 981.1
18 16.09 СЗ 1 10 км в посл. час дождь 10/10 870 м
[Sc]
+4.0 +3.0 93 +2 +2 1003.3 980.4
21 16.09 СЗ 1 20 км слаб. дождь 10/10 660 м
[Sc]
+3.1 +2.1 93 +1 +1 1003.7 980.7
00 17.09 СВ 1 20 км {дождь} 10/8 600 м
[Sc]
+4.1 +3.1 93 +3 +3 1004.0 981.1 +3.0 4
03 17.09 Ю 3 20 км 9/9 700 м
[Sc]
+6.6 +4.1 84 +4 +4 1004.5 981.8
06 17.09 Ю 2 20 км 9/4 600 м
[Cu hum Ci fib]
+7.5 +0.2 60 +6 +7 1005.4 982.7
09 17.09 СЗ 1 20 км 9/9 600 м
[Sc]
+7.5 -0.1 59 +7 +7 1006.1 983.4
12 17.09 СЗ 1 20 км 9/9 600 м
[Sc]
+5.3 +1.8 78 +4 +4 1006.9 984.0 +9.5
15 17.09 З 1 20 км 9/9 600 м
[Sc]
+3.1 +2.6 97 +1 +1 1007.2 984.1
18 17.09 штиль 0 20 км 9/9 600 м
[Sc]
+3.4 +2.9 97 +2 +2 1008.3 985.2
21 17.09 В 1 20 км {дождь} 10/10 420 м
[Sc]
+3.3 +2.8 97 +2 +2 1008.9 985.8
00 18.09 Ю 2 20 км {дождь} 10/10 450 м
[Sc]
+2.5 +1.5 93 -1 -1 1010.0 986.8 +2.1 0.4
03 18.09 ЮВ 2 20 км 10/10 600 м
[Sc]
+4.7 +0.6 75 +2 +2 1011.0 987.9
06 18.09 Ю 2 20 км 9/9 900 м
[Sc]
+5.6 -0.4 65 +3 +4 1011.9 988.9
09 18.09 ЮЗ 2 20 км 10/10 360 м
[St]
+3.1 +0.7 84 0 0 1014.6 991.3
12 18.09 ЮЗ 1 20 км 9/9 1000 м
[Sc]
+2.6 +1.0 89 +1 +1 1015.7 992.4 +6.0
15 18.09 Ю 1 20 км 10/10 400 м
[St]
+1.9 +0.6 91 0 0 1016.3 992.9
18 18.09 Ю 1 20 км 10/10 420 м
[St]
+1.7 +0.6 92 -0 -0 1016.2 992.8
21 18.09 штиль 0 20 км 9/9 300 м
[Frnb]
+0.8 0.0 94 -1 -1 1016.5 993.0
00 19.09 ЮВ 2 20 км 9/9 600 м
[Frnb]
+2.4 +0.8 89 -1 -1 1016.4 993.0 +0.8
03 19.09 В 2 20 км 9/9 600 м
[St]
+5.5 +0.9 72 +3 +4 1015.3 992.2
06 19.09 СВ 4 20 км 8/5 600 м
[Cu med, cong Ci fib]
+7.1 -1.0 56 +4 +5 1013.2 990.3
09 19.09 В 3 20 км 8/4 600 м
[Sc Ci fib]
+6.3 -2.1 55 +4 +4 1012.8 989.8

 

Местоположение метеостанции Чурапча (Якутия, Россия): широта 62.03 долгота 132.60 высота над уровнем моря 186 м.

В архиве по умолчанию представлена погода в Чурапче за последнюю неделю. Архивные данные за месяц целиком и за предыдущие месяцы, начиная с января 2011 года, Вы можете получить, выбрав интересующий диапазон дат из раскрывающегося списка и нажав кнопку "Ввод!".


*Определитесь, кто Вы:
робот инопланетянин человек

Внимание! Время в таблицах - всемирное. Для получения местного времени необходимо прибавить поправку, которая равна 9 ч.

Смотрите также архив погоды в соседних городах и на ближайших метеорологических станциях:

Погода в Ытык-Кюёле (Якутия, Россия) (60 км)
Погода в Крест-Хальджае (Якутия, Россия) (128 км)
Погода в Амге (Якутия, Россия) (131 км)
Погода в Верхоянском Перевозе (Якутия, Россия) (147 км)
Погода в Охотском Перевозе (Якутия, Россия) (153 км)
Погода в Якутске (Якутия, Россия) (157 км)
Погода в Намцах (Якутия, Россия) (173 км)
Погода в Покровске (Якутия, Россия) (194 км)
Погода в Усть-Мае (Якутия, Россия) (210 км)
Погода в Тегюльте (Якутия, Россия) (222 км)

Пояснения к столбцам:

Ветер - указаны скорость ветра в м/с - средняя за 10 мин, порывы в срок и между сроками (в фигурных скобках) и направление, откуда дует ветер: С - северный, СВ - северо-восточный, В - восточный, ЮВ - юго-восточный, Ю - южный, ЮЗ - юго-западный, З - западный, СЗ - северо-западный.
Видимость - горизонтальная дальность видимости в метрах или километрах. При видимости от 1 до 10 км при отсутствии осадков обычно наблюдается дымка, при ухудшении видимости до 1 км и менее - туман. В сухую погоду видимость может ухудшаться дымом, пылью или мглою.
Явления - указаны атмосферные явления, наблюдавшиеся в срок или в последний час перед сроком; фигурными скобками обозначены явления, наблюдавшиеся между сроками (за 1-3 часа до срока); квадратными скобками обозначены град или гололедные отложения с указанием их диаметра в мм.
Облачность - указаны через наклонную черту общая и нижняя облачность в баллах и высота нижней границы облаков в метрах; квадратными скобками обозначены формы облаков: Ci - перистые, Cs - перисто-слоистые, Cc - перисто-кучевые, Ac - высококучевые, As - высокослоистые, Sc - слоисто-кучевые, Ns - слоисто-дождевые, Cu - кучевые, Cb - кучево-дождевые. Подробнее классификацию облаков см. в Атласе облаков (PDF).
T - Температура воздуха - температура, измеренная на высоте 2 м над землей.
Td - Температура точки росы - температура, при понижении до которой содержащийся в воздухе водяной пар достигнет насыщения.
f - Относительная влажность воздуха - влажноcть воздуха, измеренная на высоте 2 м над землей.
Te - Эффективная температура - температура, которую ощущает одетый по сезону человек в тени. Характеристика душности погоды. При расчете учитывается влияние влажности воздуха и скорости ветра на теплоощущения человека.
Tes - Эффективная температура на солнце - температура, которую ощущает человек, с поправкой на солнечный нагрев. Характеристика знойности погоды. Зависит от высоты солнца над горизонтом, облачности и скорости ветра. Ночью, в пасмурную погоду, а также при ветре 12 м/с и более поправка равна нулю.
P - Атмосферное давление - приведенное к уровню моря атмосферное давление.
Po - Атмосферное давление - измеренное на уровне метеостанции атмосферное давление.
Tmin - Минимальная температура - минимум температуры воздуха на высоте 2 м над землей.
Tmax - Максимальная температура - максимум температуры воздуха на высоте 2 м над землей.
R - Количество осадков - Количество выпавших осадков за период времени, мм. При наведении курсора мыши на число - период времени, за который выпало указанное количество осадков.
R24 - Количество осадков - Количество выпавших осадков за 24 часа, мм.
S - Снежный покров - Высота снежного покрова, см. При наведении курсора мыши на число - состояние снежного покрова и степень покрытия местности в баллах.